Regional Weather Roundup
Issued by NWS

Home | Current Version | Previous Version | Text Only | Print | Product List | Glossary On
Versions: 1 2 3 4 5 6 7 8 9 10 11 12 13 14 15 16 17 18 19 20 21 22 23 24 25 26 27 28 29 30 31 32 33 34 35 36 37 38 39 40 41 42 43 44 45 46 47 48 49 50
000
ASUS43 KMPX 210410
RWRMN
WEATHER ROUNDUP FOR MINNESOTA
NATIONAL WEATHER SERVICE TWIN CITIES/CHANHASSEN MN
1100 PM CDT FRI APR 20 2018


NOTE: "FAIR" INDICATES FEW OR NO CLOUDS BELOW 12,000 FEET WITH NO
SIGNIFICANT WEATHER AND/OR OBSTRUCTIONS TO VISIBILITY. N/A MEANS
CURRENT SKY AND/OR WEATHER CONDITIONS ARE NOT AVAILABLE.

MNZ060>063-068>070-210500-
   Twin Cities Metro

CITY           SKY/WX    TMP DP  RH WIND       PRES   REMARKS
TWIN CITIES    CLOUDY    44  26  49 CALM      30.45R
ST PAUL        FAIR      40  28  62 CALM      30.45S
CRYSTAL        FAIR      40  25  55 CALM      30.43S
BLAINE         FAIR      41  27  56 CALM      30.44S
LAKEVILLE      FAIR      34  30  86 CALM      30.44S
EDEN PRAIRIE   FAIR      42  27  55 CALM      30.43S
SOUTH ST PAUL  FAIR      42  24  48 CALM      30.44S
LAKE ELMO      FAIR      36  30  80 CALM      30.45S
$$
MNZ001>005-007-008-013>017-022>024-027-028-210500-
   Northwest Minnesota

CITY           SKY/WX    TMP DP  RH WIND       PRES   REMARKS
BEMIDJI        FAIR      42  23  47 SW5       30.39R
HALLOCK        FAIR      39  36  87 SE7       30.35F
ROSEAU         FAIR      39  34  81 CALM      30.36S
WARROAD        FAIR      39  34  81 CALM      30.36S
THIEF RVR FALL FAIR      40  36  86 S3        30.38S
CROOKSTON      FAIR      39  34  81 S7        30.38S
FOSSTON        FAIR      36  25  64 S6        30.39S
DETROIT LAKES  FAIR      41  25  52 CALM      30.41R
MOORHEAD       FAIR      43  36  75 S10       30.40R
PARK RAPIDS    FAIR      38  25  59 S7        30.39S
MAHNOMEN       FAIR      37  26  64 S7        30.39R
$$
MNZ006-009>011-018-025>026-210500-
   North Central Minnesota

CITY           SKY/WX    TMP DP  RH WIND       PRES   REMARKS
BAUDETTE       FAIR      38  33  82 CALM      30.35S
FLAG ISLAND    FAIR      41  28  60 SW5       30.34S
INTL FALLS     FAIR      33  27  78 CALM      30.35S
WASKISH        FAIR      30  25  80 CALM      30.37R
BIG FORK       FAIR      34  21  60 CALM      30.38R
LONGVILLE      FAIR      34  21  60 CALM      30.40S
GRAND RAPIDS   FAIR      42  21  43 S5        30.41R
CRANE LAKE     FAIR      28  21  74 CALM      30.38S
ORR            FAIR      39  14  35 CALM      30.34S
COOK           FAIR      32  19  59 S3        30.37S
WALKER         FAIR      42  20  42 SW3       30.39S
$$
MNZ012-019>021-037-210500-
   Northeast Minnesota

CITY           SKY/WX    TMP DP  RH WIND       PRES   REMARKS
DULUTH         FAIR      42  23  46 W8        30.40R
ELY            FAIR      32  18  55 CALM      30.37S
HIBBING        FAIR      42  20  41 SW6       30.38R
EVELETH        FAIR      33  23  66 W3        30.39S
DULUTH HARBOR  FAIR      45  25  45 SW8       30.42R
TWO HARBORS    FAIR      36  23  60 CALM      30.38S
SILVER BAY     FAIR      32  25  74 CALM      30.39R
GRAND MARAIS     N/A     32  24  72 CALM      30.40S
G MARAIS ARPRT FAIR      30  18  59 CALM      30.39S
$$
MNZ029>031-032-039>041-046>048-054>057-064-210500-
   West Central Minnesota

CITY           SKY/WX    TMP DP  RH WIND       PRES   REMARKS
FERGUS FALLS   FAIR      36  32  87 S8        30.39F
WHEATON        CLOUDY    37  32  81 SE8       30.42F
MORRIS         CLOUDY    37  34  87 S8        30.41S
ALEXANDRIA     FAIR      40  32  73 S7        30.42S
ELBOW LAKE     FAIR      33  32  94 S8        30.42S WCI  26
WADENA         FAIR      37  28  70 S5        30.40F
GLENWOOD       FAIR      36  34  93 CALM      30.43S
APPLETON       PTCLDY    37  30  75 S5        30.42F
BENSON         CLOUDY    37  30  75 S5        30.44F
ORTONVILLE     PTCLDY    34  30  86 SE5       30.41S WCI  30
MADISON        PTCLDY    37  34  87 SE6       30.41F
WILLMAR        FAIR      37  36  93 CALM      30.46S
$$
MNZ033>034-036-042>043-049>051-058-059-210500-
   Central Minnesota

CITY           SKY/WX    TMP DP  RH WIND       PRES   REMARKS
ST CLOUD       FAIR      36  23  59 CALM      30.44R
SAUK CENTRE    FAIR      37  32  82 SE3       30.43F
PAYNESVILLE    FAIR      36  32  85 CALM      30.44S
AITKIN         FAIR      37  19  48 SW3       30.41S
PINE RIVER     FAIR      32  23  69 CALM      30.43S
BRAINERD       FAIR      39  23  52 S6        30.42S
STAPLES        FAIR      37  25  60 S6        30.42S
LONG PRAIRIE   FAIR      34  32  93 SE3       30.43S
LITTLE FALLS   FAIR      36  19  51 CALM      30.44S
LITCHFIELD     FAIR      37  30  75 CALM      30.44F
BUFFALO        FAIR      36  29  77 CALM      30.45S
MAPLE LAKE     FAIR      33  30  86 CALM      30.45S
HUTCHINSON     FAIR      37  34  91 CALM      30.45F
$$
MNZ037-044-045-052-053-210500-
   East Central Minnesota

CITY           SKY/WX    TMP DP  RH WIND       PRES   REMARKS
PRINCETON      FAIR      36  25  64 CALM      30.44S
MORA           FAIR      32  23  69 CALM      30.45S
CAMBRIDGE      FAIR      36  23  60 CALM      30.45R
RUSH CITY      FAIR      36  25  64 CALM      30.44S
MOOSE LAKE     FAIR      36  19  51 CALM      30.40S
HINCKLEY       FAIR      32  28  86 CALM      30.43S
CLOQUET        FAIR      43  12  28 SW5       30.40S
MCGREGOR       FAIR      37  21  52 CALM      30.42S
$$
MNZ071>073-080-081-089-090-097-098-210500-
   Southwest Minnesota

CITY           SKY/WX    TMP DP  RH WIND       PRES   REMARKS
MONTEVIDEO     CLOUDY    37  28  70 SW6       30.43S
GRANITE FALLS  CLOUDY    38  31  78 SE6       30.44F
CANBY          CLOUDY    36  33  90 CALM      30.42F
MARSHALL       MOCLDY    36  31  82 SE3       30.42F
REDWOOD FALLS  CLOUDY    37  31  78 S5        30.43F
OLIVIA         CLOUDY    36  32  87 CALM      30.43F
PIPESTONE      CLOUDY   N/A N/A N/A SE7       30.38F
WINDOM         CLOUDY    36  19  51 CALM      30.42F
WORTHINGTON    CLOUDY    35  30  82 SE7       30.40F WCI  29
JACKSON        CLOUDY    36  30  80 E5        30.42F
TRACY          CLOUDY    38  31  77 S6        30.41F
SLAYTON        CLOUDY    34  32  92 SE6       30.41F WCI  29
$$
MNZ065>067-074>077-082>085-091>093-210500-
   South Central Minnesota

CITY           SKY/WX    TMP DP  RH WIND       PRES   REMARKS
MANKATO        FAIR      40  27  59 CALM      30.45S
NEW ULM        CLOUDY    37  27  65 CALM      30.44F
ST JAMES       CLOUDY    36  30  80 CALM      30.45S
FAIRMONT       CLOUDY    38  28  67 CALM      30.44S
GLENCOE        FAIR      37  32  81 CALM      30.44S
OWATONNA       FAIR      37  30  75 CALM      30.44S
WASECA         FAIR      34  30  86 CALM      30.45S
ALBERT LEA     FAIR      36  25  64 CALM      30.44S
$$
MNZ078>079-086>088-094>096-210500-
   Southeast Minnesota

CITY           SKY/WX    TMP DP  RH WIND       PRES   REMARKS
ROCHESTER      FAIR      40  24  53 CALM      30.43S
RED WING       FAIR      36  25  64 CALM      30.44S
STANTON        FAIR      34  31  86 CALM      30.43S
DODGE CENTER   FAIR      37  25  60 CALM      30.44R
WINONA         FAIR      39  32  75 CALM      30.43S
AUSTIN         FAIR      36  25  64 CALM      30.43S
PRESTON        FAIR      39  22  52 CALM      30.43S
$$
ABBREVIATIONS USED IN REMARKS
   TC - TEMPERATURES IN CELSIUS
  WCI - WIND CHILL INDEX
   HX - HEAT INDEX
  VSB - VISIBILITY
$$




USA.gov is the U.S. government's official web portal to all federal, state and local government web resources and services.